Location: Vlissingen
(51.4500°N, 3.5830°E)
Time: 11:26:16
(UTC+01:00)

N. Korean satellite - Pass Details

Date: 06 December 2021
Orbit: 447 x 491 km, 97.3° (Epoch: 20 January)

Event Time Altitude Azimuth Distance (km) Brightness Sun altitude
Rises 04:51:48 0° 33° (NNE) 2,467 10.6 -33.6°
Reaches altitude 10° 04:55:19 10° 72° (ENE) 1,582 10.0 -33.1°
Maximum altitude 04:56:14 11° 88° (E) 1,530 9.9 -32.9°
Drops below altitude 10° 04:57:08 10° 103° (ESE) 1,578 9.9 -32.8°
Sets 05:00:36 0° 143° (SE) 2,442 10.5 -32.3°
